[[{"header":{"parameterUnit":"m.s-1","parameterCategory":1,"la1":30.2991,"la2":30.254,"lo1":-89.0895,"lo2":-89.0444,"dy":0.0017,"dx":0.0017,"nx":28,"ny":28,"refTime":"2025-09-03T03:00:00:Z","depth":0,"parameterNumber":2,"parameterNumberName":"U-component_of_WINDS"},"data":[0,0,0,0,0,0,0,0,0,0,0,0,0,0,0,0,0,0,0,0,0,0,0,0,0,0,0,0,0,0,0,0,0,0,0,0,0,0,0,0,0,0,0,0,0,0,0,0,0,0,0,0,0,0,0,0,0,0,-1.5126,-1.5128,0,-1.5281,-1.5283,-1.5285,-1.5292,-1.529,-1.5288,-1.5287,-1.5448,-1.5454,-1.546,0,0,0,0,0,0,0,0,0,0,0,0,0,-1.4837,-1.4842,-1.5126,-1.5128,-1.513,-1.5281,-1.5283,-1.5285,-1.5292,-1.529,-1.5288,-1.5286,-1.5446,-1.5453,-1.546,0,0,0,0,0,0,0,0,0,0,0,0,0,-1.4974,-1.4844,-1.5126,-1.5152,-1.5155,-1.5281,-1.5283,-1.5286,-1.5293,-1.529,-1.5287,-1.5285,-1.5444,-1.5452,-1.5461,-1.5572,0,0,-1.5489,-1.5493,0,0,0,0,0,0,0,0,-1.4967,-1.4985,-1.5146,-1.515,-1.5155,-1.5264,-1.524,-1.5382,-1.5294,-1.5241,-1.5287,-1.5283,-1.5389,-1.5403,-1.5438,-1.558,-1.5587,-1.549,-1.5495,-1.5499,-1.5502,0,0,0,0,0,0,0,-1.4957,-1.4978,-1.5188,-1.5148,-1.5154,-1.5156,-1.5172,-1.5267,-1.5329,-1.5245,-1.5246,-1.5264,-1.5391,-1.5429,-1.5442,-1.5589,-1.5489,-1.5497,-1.5503,-1.5507,-1.5828,-1.5831,0,0,0,0,0,0,-1.4942,-1.497,-1.5183,-1.5192,-1.5052,-1.5163,-1.5182,-1.5232,-1.5328,-1.534,-1.5266,-1.5264,-1.5415,-1.5431,-1.5447,-1.5582,-1.5499,-1.5507,-1.5513,-1.5825,-1.5829,-1.5832,0,0,0,0,0,0,-1.4936,-1.4961,-1.5176,-1.5082,-1.5109,-1.5171,-1.5228,-1.5237,-1.5274,-1.5344,-1.5355,-1.5294,-1.5414,-1.5435,-1.5541,-1.5588,-1.5511,-1.552,-1.5821,-1.5826,-1.583,-1.5854,0,0,0,0,0,0,-1.4928,-1.4959,-1.5001,-1.5083,-1.5114,-1.5267,-1.5231,-1.5242,-1.529,-1.5288,-1.5372,-1.5384,-1.5413,-1.5527,-1.5549,-1.5599,-1.5527,-1.5817,-1.5823,-1.5829,-1.5849,-1.5859,-1.5867,0,0,0,0,0,-1.4917,-1.5003,-1.5003,-1.5029,-1.5169,-1.5269,-1.5288,-1.5319,-1.5294,-1.5337,-1.5381,-1.5381,-1.5579,-1.5538,-1.5563,-1.5616,-1.5814,-1.5822,-1.5828,-1.5845,-1.5857,-1.5867,0,0,0,0,0,0,-1.4927,-1.5014,-1.5016,-1.513,-1.5192,-1.527,-1.5326,-1.5331,-1.5402,-1.5398,-1.5434,-1.5453,-1.5558,-1.5598,-1.555,-1.5728,-1.5694,-1.5706,-1.5698,-1.571,-1.5718,-1.5707,-1.5534,0,0,0,0,0,-1.4942,-1.5016,-1.5088,-1.5182,-1.5213,-1.5264,-1.5309,-1.5328,-1.5394,-1.5421,-1.5473,-1.5537,-1.5614,-1.5664,-1.5739,-1.5855,-1.5873,-1.5904,-1.5913,-1.592,-1.593,-1.5993,-1.6007,-1.5855,-1.5855,-1.5855,0,0,-1.4974,-1.5031,-1.5076,-1.5185,-1.5235,-1.5311,-1.5286,-1.5368,-1.5425,-1.5433,-1.5536,-1.5576,-1.5651,-1.5762,-1.5813,-1.5798,-1.5976,-1.5929,-1.5934,-1.594,-1.6002,-1.6016,-1.6029,-1.586,-1.5859,-1.5858,0,0,-1.5072,-1.5123,-1.5205,-1.5256,-1.5332,-1.5365,-1.5385,-1.5463,-1.5489,-1.5593,-1.56,-1.5669,-1.58,-1.5853,-1.5897,-1.6013,-1.6015,-1.6036,-1.6083,-1.6144,-1.6156,-1.6167,-1.6208,-1.6222,-1.6046,-1.6046,-1.6046,0,-1.5103,-1.5217,-1.5248,-1.5329,-1.5377,-1.5386,-1.5471,-1.5518,-1.5615,-1.5648,-1.563,-1.5794,-1.5846,-1.5968,-1.5996,-1.6032,-1.6055,-1.6027,-1.6152,-1.6163,-1.6174,-1.6213,-1.6228,-1.6048,-1.6048,-1.6048,-1.6048,0,-1.5251,-1.533,-1.5388,-1.548,-1.5534,-1.5616,-1.5659,-1.5711,-1.5724,-1.5759,-1.5864,-1.5925,-1.6012,-1.6042,-1.6057,-1.6167,-1.6155,-1.6144,-1.6111,-1.6189,-1.6227,-1.6242,-1.6051,-1.605,-1.605,-1.6049,0,0,-1.536,-1.5466,-1.5487,-1.5528,-1.5612,-1.5674,-1.5757,-1.584,-1.5883,-1.5949,-1.6019,-1.613,-1.6119,-1.6169,-1.619,-1.6243,-1.633,-1.6226,-1.6228,-1.6242,-1.6454,-1.6462,-1.6478,-1.6332,-1.6335,-1.6337,-1.6447,0,-1.5467,-1.5613,-1.5642,-1.5769,-1.5842,-1.5851,-1.5923,-1.5982,-1.6017,-1.6084,-1.6123,-1.62,-1.6181,-1.6211,-1.6265,-1.6308,-1.6373,-1.6301,-1.6397,-1.6401,-1.6378,-1.6498,-1.6507,-1.6608,-1.6462,-1.6465,-1.6467,0,-1.5611,-1.5679,-1.5812,-1.5885,-1.5917,-1.5981,-1.6059,-1.6123,-1.619,-1.6212,-1.6266,-1.6281,-1.6367,-1.6329,-1.6448,-1.6398,-1.6439,-1.6467,-1.6471,-1.6481,-1.6438,-1.6511,-1.6641,-1.6656,-1.649,-1.6488,-1.6487,0,-1.5676,-1.5801,-1.5897,-1.5932,-1.602,-1.6064,-1.6103,-1.6167,-1.6215,-1.6283,-1.6315,-1.6393,-1.6436,-1.6496,-1.6531,-1.65,-1.6647,-1.6612,-1.6667,-1.6666,-1.6697,-1.6695,-1.6835,-1.6725,-1.6724,-1.6724,-1.6724,0,-1.5792,-1.5873,-1.5927,-1.5986,-1.6077,-1.611,-1.6199,-1.6237,-1.6294,-1.6361,-1.6374,-1.6437,-1.6479,-1.6548,-1.6576,-1.6669,-1.6689,-1.6708,-1.6715,-1.6707,-1.6704,-1.6734,-1.6728,-1.6728,-1.6727,-1.6726,-1.6726,0,-1.588,-1.592,-1.6025,-1.6098,-1.6118,-1.6182,-1.6245,-1.6303,-1.6337,-1.6421,-1.6443,-1.6497,-1.6578,-1.6618,-1.672,-1.6738,-1.6844,-1.6846,-1.6821,-1.6823,-1.6875,-1.6869,-1.7039,-1.7063,-1.6937,-1.6938,-1.6939,0,-1.5951,-1.6014,-1.6093,-1.6138,-1.6177,-1.625,-1.6298,-1.6332,-1.6382,-1.6462,-1.651,-1.6592,-1.6658,-1.6787,-1.6836,-1.6913,-1.6917,-1.6971,-1.6929,-1.6919,-1.6917,-1.6913,-1.6919,-1.6979,-1.698,-1.6981,-1.6982,0,-1.6073,-1.6089,-1.6158,-1.6233,-1.629,-1.6351,-1.6412,-1.6448,-1.6492,-1.6547,-1.6629,-1.6681,-1.6783,-1.6863,-1.6944,-1.6984,-1.6991,-1.6995,-1.7011,-1.7004,-1.6986,-1.6995,-1.6841,-1.6991,-1.699,-1.6989,-1.6989,-1.6988,-1.6155,-1.621,-1.6274,-1.635,-1.6398,-1.6454,-1.6511,-1.6552,-1.662,-1.6705,-1.6722,-1.6809,-1.6873,-1.6982,-1.7024,-1.7093,-1.7081,-1.7105,-1.7112,-1.7117,-1.7119,-1.6975,-1.7108,-1.7108,-1.7107,-1.7107,-1.7107,0,-1.6277,-1.6318,-1.6387,-1.647,-1.6529,-1.6529,-1.6595,-1.6645,-1.6721,-1.678,-1.6845,-1.6939,-1.7016,-1.707,-1.7149,-1.7194,-1.7198,-1.7213,-1.721,-1.7219,-1.7125,-1.7103,-1.7208,-1.7208,-1.7208,-1.7208,-1.7208,-1.7208,-1.6347,-1.644,-1.6463,-1.658,-1.6621,-1.6705,-1.6743,-1.6794,-1.6842,-1.6945,-1.7009,-1.7043,-1.7101,-1.7183,-1.7254,-1.7268,-1.7296,-1.7311,-1.7325,-1.7236,-1.7226,-1.7216,-1.7194,-1.7317,-1.7317,-1.7413,-1.7414,-1.7414]},{"header":{"parameterUnit":"m.s-1","parameterCategory":1,"la1":30.2991,"la2":30.254,"lo1":-89.0895,"lo2":-89.0444,"dy":0.0017,"dx":0.0017,"nx":28,"ny":28,"refTime":"2025-09-03T03:00:00:Z","depth":0,"parameterNumber":3,"parameterNumberName":"V-component_of_WINDS"},"data":[0,0,0,0,0,0,0,0,0,0,0,0,0,0,0,0,0,0,0,0,0,0,0,0,0,0,0,0,0,0,0,0,0,0,0,0,0,0,0,0,0,0,0,0,0,0,0,0,0,0,0,0,0,0,0,0,0,0,-2.3213,-2.3213,0,-2.3231,-2.3231,-2.3231,-2.32,-2.3199,-2.3198,-2.3197,-2.3214,-2.3215,-2.3216,0,0,0,0,0,0,0,0,0,0,0,0,0,-2.3149,-2.315,-2.3213,-2.3213,-2.3213,-2.3231,-2.3231,-2.3231,-2.32,-2.3199,-2.3198,-2.3197,-2.3213,-2.3215,-2.3217,0,0,0,0,0,0,0,0,0,0,0,0,0,-2.3173,-2.315,-2.3212,-2.32,-2.3199,-2.3231,-2.3231,-2.3231,-2.3201,-2.3199,-2.3197,-2.3196,-2.3213,-2.3215,-2.3217,-2.3261,0,0,-2.3223,-2.3224,0,0,0,0,0,0,0,0,-2.3171,-2.3175,-2.3201,-2.3201,-2.32,-2.3212,-2.3214,-2.3241,-2.3201,-2.32,-2.3197,-2.3195,-2.3214,-2.3216,-2.3223,-2.3262,-2.3263,-2.3224,-2.3225,-2.3226,-2.3226,0,0,0,0,0,0,0,-2.317,-2.3174,-2.322,-2.3202,-2.3201,-2.3192,-2.3194,-2.3219,-2.3215,-2.32,-2.3198,-2.32,-2.3213,-2.3221,-2.3223,-2.3263,-2.3223,-2.3225,-2.3227,-2.3227,-2.3338,-2.334,0,0,0,0,0,0,-2.317,-2.3173,-2.3219,-2.322,-2.3181,-2.3195,-2.3197,-2.3209,-2.3215,-2.3215,-2.3202,-2.3199,-2.3218,-2.3221,-2.3223,-2.3275,-2.3226,-2.3228,-2.3229,-2.3337,-2.3339,-2.334,0,0,0,0,0,0,-2.3169,-2.3174,-2.3218,-2.3196,-2.3201,-2.3198,-2.3212,-2.3211,-2.3218,-2.3217,-2.3215,-2.321,-2.3217,-2.322,-2.3252,-2.3275,-2.3229,-2.3231,-2.3335,-2.3337,-2.3339,-2.3378,0,0,0,0,0,0,-2.3167,-2.3174,-2.3191,-2.3197,-2.3202,-2.3247,-2.3214,-2.3212,-2.3222,-2.3218,-2.3224,-2.3224,-2.3216,-2.3249,-2.3254,-2.3277,-2.3232,-2.3332,-2.3336,-2.3339,-2.3375,-2.3382,-2.3388,0,0,0,0,0,-2.3165,-2.3202,-2.3193,-2.3198,-2.3224,-2.3249,-2.3252,-2.3243,-2.3224,-2.3241,-2.324,-2.3223,-2.3272,-2.3252,-2.3258,-2.3282,-2.3331,-2.3335,-2.3338,-2.3372,-2.3381,-2.3388,0,0,0,0,0,0,-2.3199,-2.3202,-2.3192,-2.3232,-2.324,-2.3243,-2.3265,-2.3252,-2.3266,-2.3262,-2.3249,-2.3251,-2.3284,-2.3286,-2.3265,-2.3324,-2.3298,-2.3303,-2.3322,-2.333,-2.3336,-2.3334,-2.3234,0,0,0,0,0,-2.3211,-2.3231,-2.3233,-2.3268,-2.3273,-2.3268,-2.3278,-2.3271,-2.3279,-2.3282,-2.3283,-2.3291,-2.3308,-2.3319,-2.3335,-2.3376,-2.3376,-2.3395,-2.3401,-2.3406,-2.341,-2.3431,-2.3439,-2.3353,-2.3353,-2.3353,0,0,-2.3236,-2.324,-2.3254,-2.3275,-2.328,-2.3301,-2.3271,-2.3294,-2.3309,-2.3285,-2.3315,-2.3316,-2.3324,-2.336,-2.3376,-2.3363,-2.3434,-2.3411,-2.3415,-2.3416,-2.3436,-2.3444,-2.3451,-2.3355,-2.3355,-2.3354,0,0,-2.3292,-2.3298,-2.3327,-2.3334,-2.3343,-2.3339,-2.3347,-2.3352,-2.3352,-2.3381,-2.3364,-2.3381,-2.341,-2.3416,-2.3423,-2.3481,-2.3466,-2.3487,-2.352,-2.354,-2.3547,-2.3553,-2.3572,-2.3579,-2.3491,-2.3491,-2.3491,0,-2.3322,-2.3353,-2.3344,-2.3368,-2.3377,-2.3357,-2.3386,-2.3392,-2.3406,-2.3412,-2.3397,-2.3433,-2.3437,-2.3474,-2.3488,-2.3495,-2.3501,-2.3485,-2.3547,-2.3552,-2.3558,-2.3576,-2.3584,-2.3494,-2.3493,-2.3493,-2.3493,0,-2.3388,-2.341,-2.3433,-2.3446,-2.3458,-2.3485,-2.3478,-2.3491,-2.3483,-2.3481,-2.351,-2.3515,-2.353,-2.3538,-2.353,-2.3574,-2.3565,-2.3549,-2.3522,-2.3569,-2.3585,-2.3593,-2.3497,-2.3496,-2.3495,-2.3495,0,0,-2.3466,-2.3474,-2.3482,-2.3488,-2.3497,-2.3513,-2.3538,-2.3554,-2.3564,-2.3574,-2.3594,-2.362,-2.3605,-2.3612,-2.3605,-2.3623,-2.3667,-2.3604,-2.3604,-2.3614,-2.3713,-2.3725,-2.3733,-2.3657,-2.3659,-2.366,-2.3712,0,-2.352,-2.3564,-2.3557,-2.3599,-2.3618,-2.3599,-2.3621,-2.3628,-2.3627,-2.3642,-2.3641,-2.3658,-2.3638,-2.3642,-2.3659,-2.3658,-2.3686,-2.3654,-2.3674,-2.3675,-2.3672,-2.3742,-2.3754,-2.3804,-2.3719,-2.372,-2.3721,0,-2.359,-2.3603,-2.3647,-2.3652,-2.366,-2.368,-2.3693,-2.3708,-2.3716,-2.3713,-2.3722,-2.3711,-2.3735,-2.3709,-2.3741,-2.3719,-2.3727,-2.3728,-2.3729,-2.373,-2.37,-2.3743,-2.3819,-2.3826,-2.3732,-2.3731,-2.373,0,-2.364,-2.3669,-2.3699,-2.3704,-2.3711,-2.3725,-2.3728,-2.3734,-2.3744,-2.3755,-2.3761,-2.3776,-2.3783,-2.3794,-2.3786,-2.3768,-2.3819,-2.3792,-2.3817,-2.3817,-2.3827,-2.3827,-2.3905,-2.3835,-2.3835,-2.3835,-2.3835,0,-2.3701,-2.3729,-2.3721,-2.3739,-2.3769,-2.376,-2.3789,-2.379,-2.3796,-2.3813,-2.3798,-2.3815,-2.3804,-2.382,-2.3814,-2.3841,-2.3845,-2.3843,-2.384,-2.3843,-2.3843,-2.3847,-2.3843,-2.3837,-2.3836,-2.3836,-2.3836,0,-2.3762,-2.3758,-2.3789,-2.3793,-2.3795,-2.3816,-2.3819,-2.3836,-2.3834,-2.3856,-2.386,-2.3857,-2.3874,-2.3868,-2.3887,-2.3883,-2.3916,-2.3911,-2.3914,-2.3912,-2.3936,-2.3934,-2.4018,-2.4029,-2.3954,-2.3954,-2.3955,0,-2.38,-2.3821,-2.3827,-2.3838,-2.3843,-2.386,-2.387,-2.3862,-2.3872,-2.3882,-2.3897,-2.3913,-2.3926,-2.3954,-2.3953,-2.3967,-2.396,-2.3989,-2.3962,-2.3964,-2.3959,-2.3957,-2.3959,-2.3994,-2.3995,-2.3995,-2.3996,0,-2.3869,-2.3866,-2.3881,-2.3895,-2.3907,-2.3918,-2.3928,-2.3937,-2.3929,-2.3942,-2.396,-2.3969,-2.3988,-2.4004,-2.4016,-2.4019,-2.4006,-2.4005,-2.4011,-2.4013,-2.4014,-2.4012,-2.3927,-2.4002,-2.4002,-2.4001,-2.4001,-2.4001,-2.3918,-2.3935,-2.3942,-2.3959,-2.3966,-2.3975,-2.399,-2.399,-2.4005,-2.402,-2.4014,-2.4034,-2.404,-2.4056,-2.406,-2.4075,-2.4064,-2.4073,-2.4075,-2.4077,-2.408,-2.4013,-2.4078,-2.4077,-2.4077,-2.4077,-2.4077,0,-2.3984,-2.3988,-2.4004,-2.4018,-2.4031,-2.4019,-2.4028,-2.404,-2.4058,-2.4065,-2.4078,-2.4098,-2.4113,-2.4113,-2.4127,-2.4139,-2.4133,-2.4142,-2.4141,-2.4141,-2.409,-2.4082,-2.4147,-2.4147,-2.4147,-2.4147,-2.4147,-2.4147,-2.402,-2.4048,-2.4046,-2.4077,-2.408,-2.41,-2.4106,-2.4114,-2.412,-2.4143,-2.4156,-2.4156,-2.416,-2.4174,-2.4187,-2.4187,-2.4192,-2.4203,-2.4201,-2.4152,-2.4145,-2.4138,-2.4131,-2.4205,-2.4205,-2.4251,-2.4251,-2.4251]}]]